Location: Newark
(48.4472°N, 1.4892°E)
Time: 14:02:46
(UTC+00:00)

Transit 4A - Pass Details

Date: 23 January 2021
Orbit: 866 x 978 km, 66.8° (Epoch: 01 March)

Event Time Altitude Azimuth Distance (km) Brightness Sun altitude
Exits shadow 04:18:24 23° 164° (SSE) 1,847 9.5 -32.1°
Drops below altitude 10° 04:20:27 10° 159° (SSE) 2,578 10.3 -31.8°
Sets 04:22:55 0° 157° (SSE) 3,499 11.1 -31.3°
